{"data":{"norad_id":62697,"intl_designator":"2025-009CS","name":"IRIDE-MS2-HEO-1","alt_names":[],"object_type":"PAYLOAD","status":"ACTIVE","operator":null,"country":"IT","launch_date":"2025-01-14","launch_site_code":"AFWTR","launch_vehicle":null,"mission":null,"orbit_class":"UNKNOWN","rcs_meters":null,"size_class":null,"mass_kg":null,"dimensions":null,"purposes":[],"wikipedia_slug":null,"has_3d_model":false,"image_url":null,"decayed_at":null,"tle_current":{"epoch":"2026-05-25T04:37:25.152672Z","epoch_age_seconds":55504,"freshness":"FRESH","line1":"1 62697U 25009CS  26145.19265223  .00001360  00000+0  13181-3 0  9990","line2":"2 62697  97.7045 223.9234 0003867  88.1662 272.0001 14.94300795 73907","mean_motion":14.94300795,"eccentricity":0.0003867,"inclination_deg":97.7045,"raan_deg":223.9234,"arg_perigee_deg":88.1662,"mean_anomaly_deg":272.0001,"bstar":0.00013181,"rev_number":7390,"period_min":96.36614025893,"perigee_km":581.85139535803,"apogee_km":587.23633273828,"semimajor_km":6962.6808640482,"source":"CELESTRAK","updated_at":"2026-05-25T13:38:03.171623Z"}}}